Location: Unspecified
(44.8343°N, 0.0000°E)
Time: 17:46:54
(UTC+00:00)

Nimbus 2 Debris - Visible Passes

Search period start: 04 April 2026 00:00
Search period end: 14 April 2026 00:00
Orbit: 940 x 988 km, 100.6° (Epoch: 28 March)

Date Brightness Start Highest point End Pass type
(mag) Time Alt. Az. Time Alt. Az. Time Alt. Az.
4 Apr ? 22:27:06 23° NE 22:27:06 23° NE 22:30:51 10° N visible
5 Apr ? 00:11:30 30° NNW 00:11:30 30° NNW 00:14:30 10° NNW visible
5 Apr ? 22:48:38 29° NE 22:48:38 29° NE 22:52:34 10° N visible
6 Apr ? 00:33:01 25° NW 00:33:01 25° NW 00:35:41 10° NNW visible
6 Apr ? 23:10:09 36° NNE 23:10:09 36° NNE 23:14:08 10° N visible
7 Apr ? 00:54:33 20° NW 00:54:33 20° NW 00:56:41 10° NW visible
7 Apr ? 21:47:16 13° NE 21:47:55 13° NE 21:50:30 10° NNE visible
7 Apr ? 23:31:40 41° N 23:31:40 41° N 23:35:37 10° N visible
8 Apr ? 01:16:04 15° NW 01:16:04 15° NW 01:17:27 10° NW visible
8 Apr ? 22:08:47 18° NE 22:08:51 18° NE 22:12:45 10° NNE visible
8 Apr ? 23:53:11 41° NNW 23:53:11 41° NNW 23:56:59 10° NNW visible
9 Apr ? 01:37:34 10° WNW 01:37:34 10° WNW 01:37:45 10° NW visible
9 Apr ? 22:30:17 24° NE 22:30:17 24° NE 22:34:36 10° N visible
10 Apr ? 00:14:41 36° NW 00:14:41 36° NW 00:18:14 10° NNW visible
10 Apr ? 22:51:47 32° NE 22:51:47 32° NE 22:56:16 10° N visible
11 Apr ? 00:36:10 29° NW 00:36:10 29° NW 00:39:22 10° NNW visible
11 Apr ? 23:13:16 41° NNE 23:13:16 41° NNE 23:17:49 10° N visible
12 Apr ? 00:57:39 22° NW 00:57:39 22° NW 01:00:20 10° NW visible
12 Apr ? 21:50:21 13° ENE 21:51:30 13° NE 21:54:12 10° NNE visible
12 Apr ? 23:34:45 48° N 23:34:45 48° N 23:39:14 10° NNW visible
13 Apr ? 01:19:08 17° WNW 01:19:08 17° WNW 01:21:03 10° NW visible
13 Apr ? 22:11:50 18° ENE 22:12:24 18° NE 22:16:22 10° NNE visible
